This is the latest recevied weather packets stored in our database for station/object JR4VEV-13. If no packets are shown the sender has not sent any weather packets the latest 10 day(s).
| Time | Temp. | Humidity | Pressure | Rain* | Wind** | Luminosity | Snow |
|---|---|---|---|---|---|---|---|
| 1777250386 | 17.78° C | 95% | 1010.8 hPa | 0 mm | - | - | - |
| 1777249786 | 17.78° C | 96% | 1010.7 hPa | 0 mm | - | - | - |
| 1777249186 | 17.22° C | 96% | 1010.6 hPa | 0 mm | - | - | - |
| 1777248587 | 17.22° C | 97% | 1010.6 hPa | 0 mm | - | - | - |
| 1777247986 | 16.67° C | 96% | 1010.6 hPa | 0 mm | - | - | - |
| 1777247387 | 16.67° C | 96% | 1010.4 hPa | 0 mm | - | - | - |
| 1777246786 | 16.67° C | 97% | 1010.6 hPa | 0 mm | - | - | - |
| 1777246186 | 16.67° C | 96% | 1010.7 hPa | 0 mm | - | - | - |
| 1777245585 | 16.67° C | 96% | 1010.5 hPa | 0 mm | - | - | - |
| 1777244987 | 17.22° C | 97% | 1010.3 hPa | 0 mm | - | - | - |
| 1777244386 | 16.67° C | 96% | 1010.4 hPa | 0 mm | - | - | - |
| 1777243786 | 16.67° C | 97% | 1010.3 hPa | 0 mm | - | - | - |
| 1777243185 | 16.67° C | 97% | 1010.2 hPa | 0 mm | - | - | - |
| 1777242586 | 16.11° C | 98% | 1010.3 hPa | 0 mm | - | - | - |
| 1777241987 | 15.56° C | 98% | 1010.1 hPa | 0 mm | - | - | - |
| 1777241386 | 15° C | 98% | 1010.2 hPa | 0 mm | - | - | - |
| 1777240893 | 15° C | 98% | 1010.2 hPa | 0 mm | - | - | - |
| 1777240786 | 15° C | 98% | 1010.2 hPa | 0 mm | - | - | - |
| 1777240186 | 14.44° C | 98% | 1010.2 hPa | 0 mm | - | - | - |
| 1777239587 | 13.89° C | 98% | 1010.1 hPa | 0 mm | - | - | - |
| 1777238987 | 13.33° C | 98% | 1010 hPa | 0 mm | - | - | - |
| 1777238387 | 13.33° C | 98% | 1010.2 hPa | 0 mm | - | - | - |
| 1777238194 | 13.33° C | 98% | 1010.2 hPa | 0 mm | - | - | - |
| 1777237787 | 13.33° C | 98% | 1010.1 hPa | 0 mm | - | - | - |
| 1777237294 | 13.33° C | 98% | 1010 hPa | 0 mm | - | - | - |
* Rain latest hour (hover to see other rain measurements)
** Current wind speed in m/s (hover to see current wind gust speed)